CW1177 Weather Reports


time (UTC)temp
C
wind
direction
speed
KPH
gust
KPH
rain 1hr
cm
rain 24hr
cm
rain mn
cm
humidity
%
barometer
mb
20260506081037 13 0 0.0 0.0 0.00 0.00 0.00 59 1017.1
20260506080538 13 0 0.0 0.0 0.00 0.00 0.00 58 1017.1
20260506080103 13 0 0.0 0.0 0.00 0.00 0.00 57 1016.9
20260506073048 14 0 0.0 0.0 0.00 0.00 0.00 54 1016.7
20260506072539 14 0 0.0 0.0 0.00 0.00 0.00 55 1016.6
20260506072038 14 0 0.0 0.0 0.00 0.00 0.00 55 1016.5
20260506071550 14 0 0.0 0.0 0.00 0.00 0.00 56 1016.5
20260506071037 14 0 0.0 0.0 0.00 0.00 0.00 56 1016.5
20260506070537 14 0 0.0 0.0 0.00 0.00 0.00 56 1016.4
20260506062037 13 0 0.0 0.0 0.00 0.00 0.00 55 1016.1
20260506061548 13 0 0.0 0.0 0.00 0.00 0.00 54 1016.0
20260506061037 13 0 0.0 0.0 0.00 0.00 0.00 53 1016.0
20260506060537 14 0 0.0 0.0 0.00 0.00 0.00 53 1016.0
20260506051038 15 0 0.0 0.0 0.00 0.03 0.00 52 1015.2
20260506050537 15 0 0.0 0.0 0.00 0.03 0.00 52 1015.2
20260506045037 15 0 0.0 0.0 0.00 0.89 0.00 52 1014.7
20260506044554 15 0 0.0 0.0 0.00 0.89 0.00 52 1014.7
20260506044036 15 0 0.0 0.0 0.00 0.89 0.00 52 1014.8
20260506043536 16 0 0.0 0.0 0.00 0.89 0.00 53 1014.6
20260506043047 16 0 0.0 0.0 0.00 0.89 0.00 54 1014.6
20260506042538 16 0 0.0 0.0 0.00 0.89 0.00 54 1014.6
20260506042039 16 0 0.0 0.0 0.00 0.89 0.00 53 1014.7
20260506041552 16 0 0.0 0.0 0.00 0.89 0.00 52 1014.6
20260506041035 16 0 0.0 0.0 0.00 0.89 0.00 55 1014.4
20260506040538 16 0 0.0 0.0 0.00 0.89 0.00 55 1014.5
20260506040055 16 0 0.0 0.0 0.00 0.89 0.00 54 1014.4
20260506035537 16 0 0.0 0.0 0.00 0.89 0.00 52 1014.4
20260506035039 16 0 0.0 0.0 0.00 0.89 0.00 52 1014.1
20260506034603 16 0 0.0 0.0 0.00 0.89 0.00 51 1014.0
20260506034037 16 0 0.0 0.0 0.00 0.89 0.00 50 1013.8
20260506033536 16 0 0.0 0.0 0.00 0.89 0.00 49 1013.5
20260506033049 16 0 0.0 0.0 0.00 0.89 0.00 50 1013.5
20260506032539 16 0 0.0 0.0 0.00 0.89 0.00 49 1013.4
20260506032037 17 0 0.0 0.0 0.00 0.89 0.00 50 1013.4
20260506031547 17 0 0.0 0.0 0.00 0.89 0.00 50 1013.4
20260506031038 17 0 0.0 0.0 0.00 0.89 0.00 50 1013.3
20260506030538 17 0 0.0 0.0 0.00 0.89 0.00 50 1013.2
20260506030048 17 0 0.0 0.0 0.00 0.89 0.00 50 1013.2
20260506025536 17 0 0.0 0.0 0.00 1.32 0.00 50 1013.2
20260506025037 17 0 0.0 0.0 0.00 1.32 0.00 49 1013.2
20260506024606 17 0 0.0 0.0 0.00 1.32 0.00 48 1013.0
20260506024037 18 0 0.0 0.0 0.00 1.32 0.00 47 1013.0
20260506023538 18 0 0.0 0.0 0.00 1.32 0.00 47 1012.9
20260506023051 18 0 0.0 0.0 0.00 1.32 0.00 46 1012.8
20260506022539 18 0 0.0 0.0 0.00 1.32 0.00 44 1012.8
20260506022037 19 0 0.0 0.0 0.00 1.32 0.00 43 1012.6
20260506021553 19 0 0.0 0.0 0.00 1.32 0.00 43 1012.5
20260506021037 19 0 0.0 0.0 0.00 1.32 0.00 41 1012.5
20260506020536 20 0 0.0 0.0 0.00 1.32 0.00 39 1012.5
20260506020048 20 0 0.0 0.0 0.00 1.32 0.00 39 1012.4
20260506015537 20 0 0.0 0.0 0.00 1.32 0.00 38 1012.5
20260506015037 20 0 0.0 0.0 0.00 1.32 0.00 36 1012.4
20260506014908 20 0 0.0 0.0 0.00 1.32 0.00 36 1012.4
20260506014040 20 0 0.0 0.0 0.00 1.32 0.00 36 1012.4
20260506013539 20 0 0.0 0.0 0.00 1.32 0.00 37 1012.3
20260506013102 20 0 0.0 0.0 0.00 1.32 0.00 34 1012.5
20260506012538 21 0 0.0 0.0 0.00 1.32 0.00 35 1012.4
20260506012037 21 0 0.0 0.0 0.00 1.32 0.00 34 1012.5
20260506011602 21 0 0.0 0.0 0.00 1.32 0.00 36 1012.5
20260506011037 21 0 0.0 0.0 0.00 1.32 0.00 33 1012.5
20260506010537 21 0 0.0 0.0 0.00 1.32 0.00 34 1012.4
20260506010059 21 0 0.0 0.0 0.00 1.32 0.00 33 1012.4
20260506005536 21 0 0.0 0.0 0.00 1.32 0.00 34 1012.5
20260506005037 20 0 0.0 0.0 0.00 1.32 0.00 35 1012.5
20260506004549 20 0 0.0 0.0 0.00 1.32 0.00 35 1012.5
20260506004037 20 0 0.0 0.0 0.00 1.32 0.00 35 1012.5
20260506003537 20 0 0.0 0.0 0.00 1.32 0.00 36 1012.5
20260506003048 20 0 0.0 0.0 0.00 1.32 0.00 39 1012.5
20260506002828 20 0 0.0 0.0 0.00 1.32 0.00 38 1012.5
20260506002039 20 0 0.0 0.0 0.00 1.32 0.00 37 1012.5
20260506001548 20 0 0.0 0.0 0.00 1.32 0.00 38 1012.5
20260506001036 21 0 0.0 0.0 0.00 1.32 0.00 37 1012.6
20260506000537 21 0 0.0 0.0 0.00 1.32 0.00 36 1012.5
20260506000058 21 0 0.0 0.0 0.00 1.32 0.00 39 1012.5
20260505235536 21 0 0.0 0.0 0.00 1.32 0.00 39 1012.6
20260505235145 20 0 0.0 0.0 0.00 1.32 0.00 40 1012.5
20260505234637 20 0 0.0 0.0 0.00 1.32 0.00 39 1012.6
20260505234037 20 0 0.0 0.0 0.00 1.32 0.00 38 1012.6
20260505233536 20 0 0.0 0.0 0.00 1.32 0.00 41 1012.5
20260505233053 20 0 0.0 0.0 0.00 1.32 0.00 38 1012.7
20260505232537 20 0 0.0 0.0 0.00 1.32 0.00 41 1012.7
20260505232037 20 0 0.0 0.0 0.00 1.32 0.00 40 1012.7
20260505231651 20 0 0.0 0.0 0.00 1.32 0.00 38 1012.7
20260505231041 20 0 0.0 0.0 0.00 1.32 0.00 40 1012.7
20260505230556 20 0 0.0 0.0 0.00 1.32 0.00 38 1012.7
20260505230104 20 0 0.0 0.0 0.00 1.32 0.00 39 1012.8
20260505225539 20 0 0.0 0.0 0.00 1.37 0.00 39 1012.8
20260505225039 20 0 0.0 0.0 0.00 1.37 0.00 41 1012.8
20260505224554 20 0 0.0 0.0 0.00 1.37 0.00 42 1012.9
20260505224043 19 0 0.0 0.0 0.00 1.37 0.00 41 1012.8
20260505223538 19 0 0.0 9.7 0.00 1.37 0.00 41 1013.0
20260505223108 19 0 0.0 9.7 0.00 1.37 0.00 41 1013.0
20260505222538 19 0 0.0 3.2 0.00 1.37 0.00 43 1013.1
20260505222037 18 0 0.0 0.0 0.00 1.37 0.00 41 1013.2
20260505221551 18 0 0.0 0.0 0.00 1.37 0.00 43 1013.4
20260505221042 18 0 0.0 0.0 0.00 1.37 0.00 44 1013.3
20260505220539 18 0 0.0 0.0 0.00 1.37 0.00 42 1013.4
20260505220048 18 0 0.0 0.0 0.00 1.37 0.00 46 1013.4
20260505215538 18 0 0.0 0.0 0.00 1.37 0.00 44 1013.4
20260505215038 18 0 0.0 0.0 0.00 1.37 0.00 43 1013.5
20260505214551 18 0 0.0 0.0 0.00 1.37 0.00 44 1013.6
20260505214040 18 0 0.0 0.0 0.00 1.37 0.00 45 1013.6
20260505213537 18 0 0.0 0.0 0.00 1.37 0.00 47 1013.5
20260505213057 18 0 0.0 0.0 0.00 1.37 0.00 47 1013.7
20260505212538 18 0 0.0 0.0 0.00 1.37 0.00 46 1013.7
20260505212038 18 0 0.0 0.0 0.00 1.37 0.00 45 1013.8
20260505211550 18 0 0.0 0.0 0.00 1.37 0.00 50 1013.8
20260505211038 17 0 0.0 0.0 0.00 1.37 0.00 49 1013.7
20260505210540 17 0 0.0 0.0 0.00 1.37 0.00 54 1013.8
20260505210054 17 0 0.0 0.0 0.00 1.37 0.00 48 1013.9
20260505205542 17 0 0.0 0.0 0.00 1.37 0.00 50 1013.9
20260505205043 17 0 0.0 0.0 0.00 1.37 0.00 50 1013.9
20260505204553 17 0 0.0 0.0 0.00 1.37 0.00 53 1013.9
20260505204043 17 0 0.0 0.0 0.00 1.37 0.00 52 1013.9
20260505203544 16 0 0.0 0.0 0.00 1.37 0.00 53 1013.9
20260505203100 16 0 0.0 0.0 0.00 1.37 0.00 52 1014.0
20260505202543 16 0 0.0 0.0 0.00 1.37 0.00 54 1014.0
20260505202042 16 0 0.0 0.0 0.00 1.37 0.00 53 1014.1
20260505201554 16 0 0.0 0.0 0.00 1.37 0.00 53 1014.1
20260505201043 16 0 0.0 0.0 0.00 1.37 0.00 52 1014.1
20260505200543 16 0 0.0 0.0 0.00 1.37 0.00 51 1014.1
20260505200048 16 0 0.0 0.0 0.00 1.37 0.00 51 1014.1
20260505195544 16 0 0.0 0.0 0.00 1.37 0.00 52 1014.1
20260505195042 16 0 0.0 0.0 0.00 1.37 0.00 58 1014.2
20260505194610 16 0 0.0 0.0 0.00 1.37 0.00 53 1014.2
20260505194043 16 0 0.0 0.0 0.00 1.37 0.00 58 1014.2
20260505193548 16 0 0.0 0.0 0.00 1.37 0.00 57 1014.2
20260505193049 16 0 0.0 0.0 0.00 1.37 0.00 56 1014.3
20260505192542 16 0 0.0 0.0 0.00 1.37 0.00 61 1014.2
20260505192042 15 0 0.0 0.0 0.00 1.37 0.00 60 1014.2
20260505191550 15 0 0.0 0.0 0.00 1.37 0.00 59 1014.2
20260505191044 15 0 0.0 0.0 0.00 1.37 0.00 63 1014.2
20260505190543 14 0 0.0 0.0 0.00 1.37 0.00 63 1014.2
20260505190053 13 0 0.0 0.0 0.00 1.37 0.00 62 1014.2
20260505185544 14 0 0.0 0.0 0.00 1.37 0.00 61 1014.2
20260505185043 14 0 0.0 0.0 0.00 1.37 0.00 62 1014.2
20260505184551 14 0 0.0 0.0 0.00 1.37 0.00 63 1014.2
20260505184043 14 0 0.0 0.0 0.00 1.37 0.00 65 1014.1
20260505183545 13 0 0.0 0.0 0.00 1.37 0.00 62 1014.2
20260505183101 13 0 0.0 0.0 0.00 1.37 0.00 65 1014.2
20260505182542 13 0 0.0 0.0 0.00 1.37 0.00 65 1014.2
20260505182042 13 0 0.0 0.0 0.00 1.37 0.00 65 1014.2
20260505181551 12 0 0.0 0.0 0.00 1.37 0.00 66 1014.2
20260505181042 12 0 0.0 0.0 0.00 1.37 0.00 66 1014.2
20260505180542 12 0 0.0 0.0 0.00 1.37 0.00 68 1014.1
20260505180054 12 0 0.0 0.0 0.00 1.37 0.00 69 1014.1
20260505175902 12 0 0.0 0.0 0.00 1.37 0.00 68 1014.2
20260505175636 12 0 0.0 0.0 0.00 1.37 0.00 68 1014.1
20260505175605 12 0 0.0 0.0 0.00 1.37 0.00 68 1014.1
20260505175503 12 0 0.0 0.0 0.00 1.37 0.00 68 1014.1
20260505175411 12 0 0.0 0.0 0.00 1.37 0.00 68 1014.1
20260505175336 12 0 0.0 0.0 0.00 1.37 0.00 68 1014.1
20260505175208 12 0 0.0 0.0 0.00 1.37 0.00 68 1014.1
20260505175112 12 0 0.0 0.0 0.00 1.37 0.00 68 1014.1
20260505175038 12 0 0.0 0.0 0.00 1.37 0.00 68 1014.1
20260505174557 12 0 0.0 0.0 0.00 1.37 0.00 68 1014.1
20260505174038 12 0 0.0 0.0 0.00 1.37 0.00 68 1014.0
20260505173534 12 0 0.0 0.0 0.00 1.37 0.00 69 1014.0
20260505173052 12 0 0.0 0.0 0.00 1.37 0.00 69 1013.9
20260505172534 12 0 0.0 0.0 0.00 1.37 0.00 71 1013.8
20260505172154 11 0 0.0 0.0 0.00 1.37 0.00 71 1013.8
20260505165538 11 0 0.0 0.0 0.00 1.37 0.00 74 1013.7
20260505165039 11 0 0.0 0.0 0.00 1.37 0.00 75 1013.7
20260505164558 10 0 0.0 0.0 0.00 1.37 0.00 76 1013.6
20260505164039 10 0 0.0 0.0 0.00 1.37 0.00 75 1013.7
20260505163538 10 0 0.0 0.0 0.00 1.37 0.00 77 1013.6
20260505163057 10 0 0.0 0.0 0.00 1.37 0.00 76 1013.5
20260505162543 10 0 0.0 0.0 0.00 1.37 0.00 77 1013.5
20260505162038 10 0 0.0 0.0 0.00 1.37 0.00 78 1013.5
20260505161548 10 0 0.0 0.0 0.00 1.37 0.00 78 1013.5
20260505161038 9 0 0.0 0.0 0.00 1.37 0.00 78 1013.5
20260505160539 9 0 0.0 0.0 0.00 1.37 0.00 79 1013.4
20260505153105 8 0 0.0 0.0 0.00 1.37 0.00 81 1013.2
20260505152542 8 0 0.0 0.0 0.00 1.37 0.00 82 1013.2
20260505152038 8 0 0.0 0.0 0.00 1.37 0.00 82 1013.1
20260505151555 8 0 0.0 0.0 0.00 1.37 0.00 83 1013.1
20260505151038 7 0 0.0 0.0 0.00 1.37 0.00 83 1013.0
20260505150540 7 0 0.0 0.0 0.00 1.37 0.00 83 1013.0
20260505140541 7 0 0.0 0.0 0.00 1.37 0.00 84 1012.4
20260505140104 7 0 0.0 0.0 0.00 1.37 0.00 84 1012.3
20260505125040 6 0 0.0 0.0 0.00 1.37 0.00 83 1011.4
20260505124548 6 0 0.0 0.0 0.00 1.37 0.00 84 1011.4
20260505124039 6 0 0.0 0.0 0.00 1.37 0.00 84 1011.4
20260505123537 6 0 0.0 0.0 0.00 1.37 0.00 84 1011.4
20260505123104 6 0 0.0 0.0 0.00 1.37 0.00 84 1011.4
20260505122542 6 0 0.0 0.0 0.00 1.37 0.00 84 1011.3
20260505122038 6 0 0.0 0.0 0.00 1.37 0.00 84 1011.3
20260505121553 6 0 0.0 0.0 0.00 1.37 0.00 84 1011.4
20260505121038 6 0 0.0 0.0 0.00 1.37 0.00 84 1011.5
20260505120538 6 0 0.0 0.0 0.00 1.37 0.00 84 1011.5
20260505120049 6 0 0.0 0.0 0.00 1.37 0.00 84 1011.5
20260505115542 6 0 0.0 0.0 0.00 1.37 0.00 84 1011.5
20260505115041 6 0 0.0 0.0 0.00 1.37 0.00 84 1011.5
20260505114548 6 0 0.0 0.0 0.00 1.37 0.00 84 1011.3
20260505114038 6 0 0.0 0.0 0.00 1.37 0.00 84 1011.4
20260505113538 6 0 0.0 0.0 0.00 1.37 0.00 83 1011.5
20260505113047 6 0 0.0 0.0 0.00 1.37 0.00 83 1011.4
20260505112538 6 0 0.0 0.0 0.00 1.37 0.00 83 1011.4
20260505112037 6 0 0.0 0.0 0.00 1.37 0.00 83 1011.3
20260505111553 6 0 0.0 0.0 0.00 1.37 0.00 83 1011.3
20260505111038 6 0 0.0 0.0 0.00 1.37 0.00 83 1011.4
20260505110537 6 0 0.0 0.0 0.00 1.37 0.00 83 1011.5
20260505102037 6 0 0.0 0.0 0.00 1.37 0.00 84 1011.6
20260505101548 6 0 0.0 0.0 0.00 1.37 0.00 84 1011.6
20260505101042 6 0 0.0 0.0 0.00 1.37 0.00 84 1011.7
20260505100540 6 0 0.0 0.0 0.00 1.37 0.00 84 1011.7
20260505100052 6 0 0.0 0.0 0.00 1.37 0.00 84 1011.6
20260505095541 6 0 0.0 0.0 0.00 1.37 0.00 84 1011.6
20260505095037 6 0 0.0 0.0 0.00 1.37 0.00 84 1011.7
20260505094553 6 0 0.0 0.0 0.00 1.37 0.00 84 1011.7
20260505094037 6 0 0.0 0.0 0.00 1.37 0.00 84 1011.7
20260505093538 6 0 0.0 0.0 0.00 1.37 0.00 84 1011.7
20260505093048 6 0 0.0 0.0 0.00 1.37 0.00 84 1011.7
20260505092538 6 0 0.0 0.0 0.00 1.37 0.00 84 1011.9
20260505092037 6 0 0.0 0.0 0.00 1.37 0.00 84 1011.9
20260505091558 6 0 0.0 0.0 0.00 1.37 0.00 84 1011.8
20260505091042 6 0 0.0 0.0 0.00 1.37 0.00 83 1011.9
20260505090542 6 0 0.0 0.0 0.00 1.37 0.00 83 1011.8
20260505090058 6 0 0.0 0.0 0.00 1.37 0.00 83 1011.8
20260505085538 6 0 0.0 0.0 0.00 1.37 0.00 83 1011.8
20260505085038 6 0 0.0 0.0 0.00 1.37 0.00 83 1012.0
20260505084551 6 0 0.0 0.0 0.00 1.37 0.00 83 1011.9
20260505084040 6 0 0.0 0.0 0.00 1.37 0.00 83 1012.0
20260505083603 6 0 0.0 14.5 0.00 1.37 0.00 83 1012.2
20260505083052 6 0 0.0 14.5 0.00 1.37 0.00 83 1012.3
20260505082539 6 294 6.4 22.5 0.00 1.37 0.00 83 1012.4
20260505082037 6 291 4.8 22.5 0.00 1.37 0.00 83 1012.4
20260505081558 6 296 6.4 17.7 0.00 1.37 0.00 83 1012.4